Location: Augsburg
(48.3836°N, 10.8929°E)
Time: 21:25:00
(UTC+01:00)

N. Korean satellite - Visible Passes

Search period start: 23 November 2017 00:00
Search period end: 03 December 2017 00:00
Orbit: 460 x 514 km, 97.2° (Epoch: 22 November)

Date Brightness Start Highest point End Pass type
(mag) Time Alt. Az. Time Alt. Az. Time Alt. Az.
23 Nov 10.1 05:56:38 10° ENE 05:58:10 12° E 05:59:41 10° ESE visible
23 Nov 6.4 18:07:57 10° SSE 18:11:29 87° ENE 18:15:07 10° NNW visible
24 Nov 6.8 17:44:39 10° SE 17:48:02 45° ENE 17:51:32 10° N visible
24 Nov 9.8 19:19:48 10° SW 19:21:50 14° W 19:23:54 10° NW visible
25 Nov 8.4 06:41:31 10° NNE 06:45:03 37° E 06:48:33 10° SSE visible
25 Nov 7.6 17:21:43 10° ESE 17:24:41 25° ENE 17:27:42 10° N visible
25 Nov 8.8 18:55:07 10° SSW 18:58:09 26° W 19:01:13 10° NW visible
26 Nov 9.6 06:18:29 10° NE 06:21:25 21° E 06:24:19 10° SE visible
26 Nov 8.2 16:59:16 10° E 17:01:22 15° ENE 17:03:32 10° NNE visible
26 Nov 7.5 18:31:05 10° S 18:34:32 48° W 18:38:04 10° NNW visible
27 Nov 10.1 05:56:10 10° ENE 05:57:41 12° E 05:59:13 10° ESE visible
27 Nov 6.5 18:07:25 10° SSE 18:10:59 87° ENE 18:14:39 10° NNW visible
28 Nov 7.1 07:04:20 10° NNE 07:08:06 70° ESE 07:11:51 10° S visible
28 Nov 6.8 17:44:05 10° SE 17:47:31 45° ENE 17:51:02 10° N visible
28 Nov 9.7 19:19:12 10° SW 19:21:18 15° W 19:23:27 10° NW visible
29 Nov 8.4 06:41:00 10° NNE 06:44:32 37° E 06:48:03 10° SSE visible
29 Nov 7.6 17:21:08 10° ESE 17:24:08 25° ENE 17:27:12 10° N visible
29 Nov 8.8 18:54:31 10° SSW 18:57:36 26° W 19:00:44 10° NW visible
30 Nov 9.6 06:17:57 10° NE 06:20:53 21° E 06:23:47 10° SE visible
30 Nov 8.2 16:58:39 10° E 17:00:49 15° ENE 17:03:01 10° NNE visible
30 Nov 7.5 18:30:28 10° S 18:33:57 49° W 18:37:33 10° NNW visible
01 Dec 10.1 05:55:37 10° ENE 05:57:08 12° E 05:58:38 10° ESE visible
01 Dec 6.5 18:06:48 10° SSE 18:10:24 86° ENE 18:14:06 10° NNW visible
02 Dec 7.1 07:03:45 10° NNE 07:07:32 70° ESE 07:11:17 10° S visible
02 Dec 6.8 17:43:27 10° SE 17:46:55 45° ENE 17:50:28 10° N visible
02 Dec 9.7 19:18:31 10° SW 19:20:41 15° W 19:22:55 10° NW visible
